Regional Weather Roundup
Issued by NWS Green Bay, WI

Home | Current Version | Previous Version | Graphics & Text | Print | Product List | Glossary Off
Versions: 1 2 3 4 5 6 7 8 9 10 11 12 13 14 15 16 17 18 19 20 21 22 23 24 25 26 27 28 29 30 31 32 33 34 35 36 37 38 39 40 41 42 43 44 45 46 47 48 49 50

979
ASUS43 KGRB 240700
RWRGRB

NORTH-CENTRAL AND NORTHEAST WISCONSIN REGIONAL WEATHER ROUNDUP
NATIONAL WEATHER SERVICE GREEN BAY WI
200 AM CDT SAT JUN 24 2017

WIZ005-009-010>012-018-019-240800-
NORTH CENTRAL WISCONSIN

CITY           SKY/WX    TMP DP  RH WIND       PRES   REMARKS
IRONWOOD       CLOUDY    57  53  86 W12       29.83R
MANITOWISH WTR NOT AVBL
ARBOR VITAE    NOT AVBL
EAGLE RIVER    NOT AVBL
LAND O LAKES   MOCLDY    55  51  85 NW9       29.82S
RHINELANDER    MOCLDY    54  52  93 W7        29.83R
PHILLIPS       NOT AVBL
ANTIGO         NOT AVBL
TOMAHAWK       NOT AVBL
MERRILL        MOCLDY    56  55  94 W6        29.84S
$$

WIZ013-073-240800-
NORTHEAST WISCONSIN

CITY           SKY/WX    TMP DP  RH WIND       PRES   REMARKS
IRON MOUNTAIN  PTCLDY    53  46  77 N6        29.75F
MARINETTE      CLEAR     56  51  84 VRB3      29.77R
$$

WIZ017-030-035>037-045-240800-
CENTRAL WISCONSIN

CITY           SKY/WX    TMP DP  RH WIND       PRES   REMARKS
MEDFORD        NOT AVBL
WAUSAU         MOCLDY    57  52  83 W10       29.82S
MOSINEE        NOT AVBL
MARSHFIELD     CLOUDY    58  52  80 W9        29.86R
WISC RAPIDS    CLOUDY    60  53  77 NW10      29.87R
STEVENS POINT  NOT AVBL
WAUPACA        PTCLDY    61  54  78 W8        29.83R
SHAWANO        NOT AVBL
CLINTONVILLE   NOT AVBL
WAUTOMA        NOT AVBL
$$

WIZ038-039-048-051-240800-
FOX VALLEY

CITY           SKY/WX    TMP DP  RH WIND       PRES   REMARKS
NWS GREEN BAY  CLEAR     59  54  83 W8        29.79S
APPLETON       NOT AVBL
OSHKOSH        CLEAR     60  53  77 W6        29.81S
FOND DU LAC    PTCLDY    61  51  70 W10       29.82S
$$

WIZ022-050-052-240800-
EAST CENTRAL WISCONSIN

CITY           SKY/WX    TMP DP  RH WIND       PRES   REMARKS
EPHRAIM        NOT AVBL
WASHINGTON ISL NOT AVBL
STURGEON BAY     N/A     59  53  80 W6          N/A
MANITOWOC      NOT AVBL
SHEBOYGAN      CLEAR     61  56  83 W9        29.80S
$$

LMZ563-521-522-541>543-240800-
LAKESHORE

STATION/POSITION TIME  TEMP    WIND        PRES    VSBY  WAVE
                       AIR SEA DIR/SP/G                  HT/PER
                 (UTC) (F)     (DEG/KT/KT) (MB)    (MI)  (FT/S)
SHEBOYGAN LKSHOR 0600   64     270/ 10/ 12 1008.4R
KEWAUNEE LKSHORE 0630   59     290/  3/  4 1008.0S
NORTHPORT PIER   0640   60     260/  3/  5 1007.1S
N MID LAKE BUOY  0550   60 57  230/  6/  6 1007.5R         1
S GREEN BAY BUOY 0630   63     270/ 12/ 16 1007.9R
CHAMBERS ISLAND  0640   60     230/  4/  7 1007.5R
MENOMINEE LKSHOR 0624          240/  7/  9 1007.1
$$




USA.gov is the U.S. government's official web portal to all federal, state and local government web resources and services.